DW7371 Weather Reports


Display with metric or nautical units.
time (UTC)temp
F
wind
direction
speed
MPH
gust
MPH
rain 1hr
in
rain 24hr
in
rain mn
in
humidity
%
barometer
mb
20260505024052 59 49 1.0 4.0 0.00 0.00 0.00 76 1006.0
20260505023035 60 152 1.0 6.0 0.00 0.00 0.00 75 1006.1
20260505022034 60 148 1.0 6.0 0.00 0.00 0.00 74 1006.1
20260505014730 62 187 1.0 7.0 0.00 0.00 0.00 70 1006.4
20260505013729 63 161 2.0 8.0 0.00 0.00 0.00 67 1006.4
20260505012738 65 115 2.0 8.0 0.00 0.00 0.00 65 1006.4
20260505010642 67 163 3.0 6.0 0.00 0.00 0.00 62 1006.6
20260505004524 68 165 7.0 13.0 0.00 0.00 0.00 59 1006.6
20260505003539 71 196 5.0 8.0 0.00 0.00 0.00 49 1006.7
20260505001413 73 163 4.0 9.0 0.00 0.00 0.00 44 1006.7
20260505000340 73 182 5.0 9.0 0.00 0.00 0.00 44 1006.8
20260504235405 74 200 6.0 9.0 0.00 0.00 0.00 43 1006.9
20260504233259 74 192 4.0 8.0 0.00 0.00 0.00 50 1007.0
20260504232249 72 245 4.0 8.0 0.00 0.00 0.00 50 1007.1
20260504231235 72 249 5.0 9.0 0.00 0.00 0.00 53 1007.1
20260504230233 72 219 4.0 10.0 0.00 0.00 0.00 49 1007.2
20260504223040 73 225 6.0 9.0 0.00 0.00 0.00 53 1007.3
20260504222030 73 242 5.0 9.0 0.00 0.00 0.00 53 1007.4
20260504221030 73 263 5.0 9.0 0.00 0.00 0.00 54 1007.5
20260504220035 73 259 6.0 9.0 0.00 0.00 0.00 50 1007.5
20260504215022 74 256 3.0 9.0 0.00 0.00 0.00 53 1007.5
20260504214034 74 191 3.0 8.0 0.00 0.00 0.00 51 1007.6
20260504213046 74 197 3.0 7.0 0.00 0.00 0.00 49 1007.7
20260504212056 74 269 3.0 9.0 0.00 0.00 0.00 52 1007.7
20260504211107 73 221 4.0 9.0 0.00 0.00 0.00 50 1007.6
20260504210036 73 165 4.0 8.0 0.00 0.00 0.00 50 1007.7
20260504202749 73 198 3.0 8.0 0.00 0.00 0.00 52 1007.9
20260504201736 72 171 4.0 9.0 0.00 0.00 0.00 56 1008.1
20260504195554 71 140 4.0 8.0 0.00 0.00 0.00 52 1008.1
20260504194539 71 192 3.0 7.0 0.00 0.00 0.00 53 1007.9
20260504193558 71 207 4.0 9.0 0.00 0.00 0.00 53 1007.9
20260504192524 71 211 4.0 9.0 0.00 0.00 0.00 55 1008.0
20260504184114 69 207 2.0 7.0 0.00 0.00 0.00 57 1008.2
20260504183105 70 171 3.0 7.0 0.00 0.00 0.00 59 1008.2
20260504182116 70 199 2.0 6.0 0.00 0.00 0.00 59 1008.1
20260504181114 69 178 3.0 6.0 0.00 0.00 0.00 57 1008.1
20260504180133 69 128 2.0 6.0 0.00 0.00 0.00 56 1008.3
20260504175105 68 200 2.0 6.0 0.00 0.00 0.00 55 1008.3
20260504173037 68 269 1.0 4.0 0.00 0.00 0.00 62 1008.2
20260504172053 68 277 0.0 1.0 0.00 0.00 0.00 64 1008.2
20260504171057 67 277 1.0 2.0 0.00 0.00 0.00 64 1008.2
20260504150823 58 63 0.0 1.0 0.00 0.00 0.00 79 1008.1
20260504140812 54 49 0.0 0.0 0.00 0.00 0.00 81 1007.5
20260504080210 58 113 0.0 0.0 0.00 0.00 0.00 63 1006.9
20260504070248 59 113 0.0 0.0 0.00 0.00 0.00 62 1006.8
20260504045849 65 113 0.0 1.0 0.00 0.00 0.00 53 1007.1
20260504043651 66 113 0.0 1.0 0.00 0.00 0.00 50 1007.1
20260504042617 63 113 0.0 1.0 0.00 0.00 0.00 54 1007.0
20260504035359 66 75 0.0 0.0 0.00 0.00 0.00 48 1007.0
20260504034343 66 75 0.0 2.0 0.00 0.00 0.00 52 1007.0
20260504033316 66 76 0.0 2.0 0.00 0.00 0.00 51 1007.0
20260504032300 67 116 0.0 0.0 0.00 0.00 0.00 50 1006.9
20260504031259 68 119 0.0 0.0 0.00 0.00 0.00 52 1006.9
20260504030323 68 175 0.0 0.0 0.00 0.00 0.00 54 1007.0
20260504025341 67 175 0.0 0.0 0.00 0.00 0.00 55 1007.0